Location: Unspecified
(26.1220°N, 0.0000°E)
Time: 17:51:12
(UTC+00:00)

OTV 5 (USA 277) - Visible Passes

Search period start: 24 May 2019 00:00
Search period end: 03 June 2019 00:00
Orbit: 310 x 325 km, 54.5° (Epoch: 08 May)

Date Brightness Start Highest point End Pass type
(mag) Time Alt. Az. Time Alt. Az. Time Alt. Az.
29 May ? 04:34:14 10° SSE 04:36:02 16° ESE 04:37:49 10° E visible
01 Jun ? 03:45:11 27° SSE 03:45:51 31° SE 03:48:20 10° ENE visible
02 Jun ? 03:59:42 35° WSW 04:00:30 51° NW 04:03:12 10° NNE visible
